This is the latest recevied weather packets stored in our database for station/object KA3WVU. If no packets are shown the sender has not sent any weather packets the latest 10 day(s).
| Time | Temp. | Humidity | Pressure | Rain* | Wind** | Luminosity | Snow |
|---|---|---|---|---|---|---|---|
| 1777849788 | 10° C | 45% | 1012.4 hPa | 0 mm | - | 28 W/m² | - |
| 1777849484 | 10.56° C | 45% | 1012.1 hPa | 0 mm | - | 29 W/m² | - |
| 1777849182 | 10.56° C | 45% | 1012.3 hPa | 0 mm | - | 33 W/m² | - |
| 1777848879 | 10.56° C | 44% | 1012.3 hPa | 0 mm | - | 42 W/m² | - |
| 1777848574 | 10.56° C | 45% | 1012.3 hPa | 0 mm | - | 46 W/m² | - |
| 1777848271 | 10.56° C | 45% | 1012.3 hPa | 0 mm | - | 48 W/m² | - |
| 1777847969 | 10.56° C | 44% | 1012.5 hPa | 0 mm | - | 58 W/m² | - |
| 1777847667 | 10.56° C | 45% | 1012.4 hPa | 0 mm | - | 63 W/m² | - |
| 1777847362 | 10.56° C | 44% | 1012.4 hPa | 0 mm | - | 75 W/m² | - |
| 1777847061 | 10.56° C | 44% | 1012.5 hPa | 0 mm | - | 54 W/m² | - |
| 1777846759 | 11.11° C | 43% | 1012.3 hPa | 0 mm | - | 43 W/m² | - |
| 1777846457 | 11.67° C | 44% | 1012.3 hPa | 0 mm | - | 109 W/m² | - |
| 1777846153 | 11.67° C | 43% | 1012.1 hPa | 0 mm | - | 85 W/m² | - |
| 1777845850 | 10.56° C | 42% | 1012.4 hPa | 0 mm | - | 110 W/m² | - |
| 1777845547 | 10.56° C | 43% | 1012.4 hPa | 0 mm | - | 65 W/m² | - |
| 1777845244 | 11.11° C | 42% | 1012.1 hPa | 0 mm | - | 57 W/m² | - |
| 1777844941 | 11.67° C | 43% | 1012.5 hPa | 0 mm | - | 88 W/m² | - |
| 1777844638 | 11.11° C | 45% | 1012.3 hPa | 0 mm | - | 105 W/m² | - |
| 1777844336 | 11.11° C | 43% | 1012.3 hPa | 0 mm | - | 100 W/m² | - |
| 1777844034 | 10.56° C | 44% | 1012.3 hPa | 0 mm | - | 81 W/m² | - |
| 1777843730 | 11.11° C | 43% | 1012.1 hPa | 0 mm | - | 99 W/m² | - |
| 1777843428 | 11.11° C | 44% | 1012.3 hPa | 0 mm | - | 110 W/m² | - |
| 1777843125 | 10.56° C | 46% | 1012.1 hPa | 0 mm | - | 100 W/m² | - |
| 1777842822 | 10.56° C | 43% | 1011.9 hPa | 0 mm | - | 81 W/m² | - |
| 1777842517 | 10.56° C | 44% | 1012.1 hPa | 0 mm | - | 78 W/m² | - |
* Rain latest hour (hover to see other rain measurements)
** Current wind speed in m/s (hover to see current wind gust speed)